Weather History for Flint, MI

Change the Weather History Date:

Sunday, February 2, 2014

  Actual Average Record
Temperature  
Mean Temperature 15 °F 23 °F  
Max Temperature 24 °F 30 °F 53 °F (1973)
Min Temperature 6 °F 15 °F -22 °F (1959)
Degree Days  
Heating Degree Days 50 42  
Month to date heating degree days 89 84  
Since 1 July heating degree days 4242 4048  
Cooling Degree Days 0 0  
Month to date cooling degree days 0 0  
Year to date cooling degree days 0 0  
Moisture  
Dew Point 15 °F    
Average Humidity 76    
Maximum Humidity 92    
Minimum Humidity 60    
Precipitation  
Precipitation T in 0.04 in 0.69 in (2011)
Month to date precipitation 0.32 0.09  
Year to date precipitation 2.85 1.72  
Snow  
Snow T in 0.40 in 8.30 in (2011)
Month to date snowfall 3.5 0.8  
Since 1 July snowfall 54.9 28.6  
Snow Depth 8.00 in    
Sea Level Pressure  
Sea Level Pressure 30.14 in    
Wind  
Wind Speed 6 mph (WNW)    
Max Wind Speed 16 mph    
Max Gust Speed 20 mph    
Visibility 9 miles    
Events Snow    
T = Trace of Precipitation, MM = Missing Value Source: NWS Daily Summary

Daily Weather History Graph

Daily Weather History Graph

Search for Another Location

Airport:

Trip Planner

Search our weather history database for the weather conditions in past years. The results will help you decide how hot, cold, wet, or windy it might be!

Date:

Astronomy

Feb. 02, 2014 Rise Set
Actual Time 7:48 AM EST 5:49 PM EST
Civil Twilight 7:18 AM EST 6:19 PM EST
Nautical Twilight 6:44 AM EST 6:53 PM EST
Astronomical Twilight 6:11 AM EST 7:26 PM EST
Moon 9:08 AM EST (2/2) 9:39 PM EST (2/2)
Length of Visible Light 11h 00m
Length of Day
10h 00m
Waxing Crescent, 11% of the Moon is Illuminated
Feb 2
Waxing Crescent
Feb 6
First Quarter
Feb 14
Full
Feb 22
Last Quarter
Mar 1
New

Hourly Weather History & Observations

Time (EST) Temp. Windchill Dew Point Humidity Pressure Visibility Wind Dir Wind Speed Gust Speed Precip Events Conditions
12:31 AM 21.2 °F 14.9 °F 17.6 °F 86% 29.98 in 10.0 mi NW 4.6 mph - N/A   Scattered Clouds
12:53 AM 21.9 °F 15.7 °F 18.0 °F 85% 30.01 in 10.0 mi NW 4.6 mph - N/A   Partly Cloudy
1:23 AM 21.2 °F 14.9 °F 17.6 °F 86% 29.99 in 10.0 mi WNW 4.6 mph - N/A   Mostly Cloudy
1:48 AM 21.2 °F 13.6 °F 17.6 °F 86% 30.00 in 8.0 mi WNW 5.8 mph - N/A   Overcast
1:53 AM 21.9 °F 14.5 °F 18.0 °F 85% 30.04 in 8.0 mi WNW 5.8 mph - N/A   Overcast
2:05 AM 21.2 °F 13.6 °F 17.6 °F 86% 30.01 in 8.0 mi WNW 5.8 mph - N/A   Overcast
2:18 AM 21.2 °F 16.4 °F 17.6 °F 86% 30.01 in 8.0 mi WNW 3.5 mph - N/A   Overcast
2:53 AM 21.0 °F 14.6 °F 18.0 °F 88% 30.05 in 8.0 mi WNW 4.6 mph - N/A   Overcast
3:53 AM 21.0 °F 13.4 °F 17.1 °F 85% 30.05 in 8.0 mi NW 5.8 mph - N/A   Overcast
4:24 AM 21.2 °F 12.6 °F 17.6 °F 86% 30.04 in 9.0 mi NW 6.9 mph - N/A   Mostly Cloudy
4:33 AM 21.2 °F 12.6 °F 17.6 °F 86% 30.04 in 9.0 mi WNW 6.9 mph - N/A   Mostly Cloudy
4:36 AM 21.2 °F 12.6 °F 17.6 °F 86% 30.04 in 9.0 mi WNW 6.9 mph - N/A   Overcast
4:53 AM 21.0 °F 12.4 °F 17.1 °F 85% 30.08 in 9.0 mi NW 6.9 mph - N/A   Overcast
5:53 AM 19.9 °F 12.1 °F 16.0 °F 85% 30.09 in 9.0 mi NW 5.8 mph - N/A   Overcast
6:08 AM 19.4 °F 11.5 °F 15.8 °F 86% 30.06 in 9.0 mi WNW 5.8 mph - N/A   Overcast
6:53 AM 19.9 °F 13.4 °F 17.1 °F 89% 30.10 in 9.0 mi WNW 4.6 mph - N/A   Overcast
7:53 AM 19.9 °F - 17.1 °F 89% 30.12 in 9.0 mi Calm Calm - N/A   Overcast
8:53 AM 21.9 °F 17.2 °F 17.1 °F 82% 30.14 in 8.0 mi WSW 3.5 mph - N/A   Overcast
9:53 AM 23.0 °F 17.0 °F 17.1 °F 78% 30.15 in 10.0 mi West 4.6 mph - N/A   Overcast
10:53 AM 24.1 °F 13.1 °F 17.1 °F 75% 30.17 in 10.0 mi West 11.5 mph - N/A   Overcast
11:53 AM 23.0 °F 10.6 °F 16.0 °F 74% 30.19 in 4.0 mi West 13.8 mph - 0.00 in Snow Light Snow
12:06 PM 23.0 °F 11.1 °F 15.8 °F 74% 30.16 in 7.0 mi West 12.7 mph - 0.00 in   Overcast
12:53 PM 24.1 °F 12.5 °F 15.1 °F 69% 30.19 in 7.0 mi WNW 12.7 mph - 0.00 in   Overcast
1:53 PM 24.1 °F 12.0 °F 12.9 °F 62% 30.17 in 10.0 mi WNW 13.8 mph - N/A   Overcast
2:46 PM 24.8 °F 13.4 °F 12.2 °F 59% 30.14 in 10.0 mi WNW 12.7 mph - N/A   Overcast
2:53 PM 23.0 °F 13.1 °F 14.0 °F 68% 30.18 in 10.0 mi NW 9.2 mph - N/A   Overcast
3:53 PM 24.1 °F 13.7 °F 14.0 °F 65% 30.21 in 10.0 mi West 10.4 mph - N/A   Overcast
4:53 PM 24.1 °F 16.0 °F 14.0 °F 65% 30.21 in 7.0 mi NW 6.9 mph - 0.00 in Snow Light Snow
5:53 PM 23.0 °F 14.7 °F 14.0 °F 68% 30.24 in 10.0 mi NW 6.9 mph - 0.00 in   Overcast
6:53 PM 23.0 °F 14.7 °F 12.0 °F 63% 30.26 in 10.0 mi NW 6.9 mph - N/A   Overcast
7:53 PM 21.0 °F 16.2 °F 10.9 °F 65% 30.28 in 10.0 mi NW 3.5 mph - N/A   Overcast
8:01 PM 21.2 °F 14.9 °F 10.4 °F 63% 30.23 in 10.0 mi NW 4.6 mph - N/A   Overcast
8:30 PM 17.6 °F 12.3 °F 10.4 °F 73% 30.22 in 10.0 mi NW 3.5 mph - N/A   Scattered Clouds
8:53 PM 17.1 °F - 10.0 °F 74% 30.27 in 10.0 mi Calm Calm - N/A   Clear
9:53 PM 17.1 °F - 10.0 °F 74% 30.28 in 10.0 mi Calm Calm - N/A   Clear
10:53 PM 12.9 °F - 9.0 °F 84% 30.29 in 10.0 mi Calm Calm - N/A   Clear
11:53 PM 6.1 °F -0.9 °F 1.9 °F 83% 30.30 in 6.0 mi West 3.5 mph - N/A   Clear